GFSGBSN_sfc_30mbdewp_066.txt.gz
Dewpoint
49 50 48 48 47 48 48 49 50 50 50 50 51 52 54 55 57 58 56 55 55 55 54 53 53 53 45 29 24 40 55 57 46 36 28 22 20 25 21 24 25 23 28 35 34 38 39
45 47 51 50 48 47 46 48 49 49 48 50 51 52 53 53 54 56 57 56 55 55 54 54 53 53 41 24 25 39 40 39 34 32 27 26 28 28 26 26 26 35 35 34 36 37 38
43 44 45 48 51 49 48 46 47 48 47 48 50 51 51 53 53 53 56 57 56 55 54 53 53 48 39 29 27 37 39 35 35 31 25 26 28 29 30 27 35 35 33 36 37 37 34
42 41 42 45 47 50 49 47 46 47 47 47 48 49 50 51 52 53 55 56 56 55 53 53 53 47 29 33 32 33 32 37 34 34 32 30 30 30 30 30 27 28 26 19 30 36 36
43 42 42 42 44 46 49 49 47 46 46 47 47 48 49 50 52 53 55 56 55 54 52 52 48 43 27 34 32 27 27 27 31 36 35 30 31 30 30 24 20 22 16 19 22 31 30
44 44 43 44 44 44 46 50 48 46 46 46 47 46 48 50 52 52 55 55 54 51 51 49 46 39 33 23 29 34 35 26 30 32 32 30 29 27 26 22 13 16 17 19 20 26 30
45 45 45 44 44 44 44 46 49 48 46 45 46 48 47 49 52 53 53 48 42 40 46 34 33 30 27 31 39 34 36 33 28 29 26 30 26 23 19 21 22 19 19 19 21 25 25
43 45 45 45 45 43 43 43 45 48 47 45 44 47 47 48 51 54 52 45 44 44 35 36 37 37 36 37 33 35 33 26 26 25 27 29 25 25 27 25 25 23 21 21 22 25 25
44 45 45 46 45 45 43 43 44 45 48 46 45 46 47 48 52 52 51 47 45 44 35 35 37 32 31 36 29 29 30 24 24 23 24 23 25 28 27 27 25 23 22 22 21 24 26
44 44 45 45 47 46 45 45 44 44 48 47 45 45 48 49 49 49 49 48 48 48 35 24 30 33 33 31 29 27 31 24 23 21 22 23 26 26 26 23 24 21 24 24 23 24 18
44 44 45 45 45 46 46 46 45 44 45 47 46 45 47 47 48 47 47 52 50 47 12 18 31 35 33 22 20 25 30 26 21 22 25 22 24 25 23 24 26 23 28 26 26 25 23
44 44 45 45 45 45 46 46 46 45 44 46 46 45 46 45 47 49 49 52 48 34 18 16 34 34 32 27 24 26 26 26 24 22 24 21 28 27 25 28 27 30 29 28 28 26 19
44 45 45 45 45 46 46 46 46 45 44 45 47 45 45 43 41 48 51 48 34 24 19 15 31 33 27 23 23 23 22 24 21 19 19 22 22 27 28 26 29 28 26 20 21 19 16
45 45 45 45 45 46 46 46 46 45 44 44 47 45 45 45 43 48 49 42 27 14 18 27 31 32 25 20 19 23 20 21 21 19 17 18 17 23 27 24 23 26 24 20 13 14 14
46 45 46 46 46 46 46 46 46 46 44 44 46 44 43 46 45 49 44 33 24 22 25 22 28 30 25 19 17 22 20 18 21 22 17 17 15 23 27 28 25 28 24 26 25 28 22
45 45 45 46 46 46 46 46 47 46 44 44 41 41 40 45 46 45 38 31 26 25 29 32 21 29 27 18 18 19 20 20 20 22 20 21 16 22 30 31 30 28 27 23 24 18 14
45 45 45 45 46 46 46 46 46 46 44 44 40 36 39 46 45 39 30 30 27 31 33 32 27 31 25 23 16 19 19 21 21 23 22 20 18 25 30 27 23 28 25 25 24 22 17
45 45 45 45 46 46 46 46 46 46 44 44 36 31 39 42 34 34 30 30 30 27 35 34 34 33 34 24 20 15 17 18 24 22 22 22 20 18 20 27 29 26 24 25 20 19 23
45 45 45 45 45 46 46 46 46 46 45 42 33 35 42 38 27 29 30 29 28 30 28 33 32 33 36 34 22 21 20 23 23 23 21 23 20 17 18 23 29 24 25 25 25 27 20
46 46 45 45 45 46 47 46 46 46 45 40 35 30 37 38 30 26 26 26 27 29 29 31 32 32 32 31 32 25 23 28 26 24 26 26 19 18 16 14 16 19 22 24 22 21 18
45 47 46 46 46 47 47 47 46 46 45 39 36 32 33 29 32 25 25 24 23 26 28 32 32 32 31 29 31 27 26 32 29 30 26 25 18 20 18 16 15 16 15 17 20 19 15
43 44 45 46 46 44 45 47 47 46 45 38 33 32 30 31 31 28 23 24 23 24 27 28 29 29 31 31 31 29 30 30 27 33 29 27 20 22 21 19 19 17 18 18 21 20 22
43 43 43 44 44 44 45 46 47 46 44 37 36 33 29 27 30 27 24 20 22 24 26 28 29 29 30 30 33 34 34 33 32 30 31 29 23 24 19 25 24 23 24 21 23 26 24
42 42 43 44 44 44 44 44 47 46 43 39 35 34 31 25 27 28 25 20 21 22 25 28 31 30 31 36 35 32 32 30 30 29 30 32 28 27 21 26 22 20 27 24 23 23 24
42 42 42 43 44 44 44 44 46 45 43 39 38 34 29 27 24 24 26 22 21 23 26 27 34 33 36 33 29 28 27 27 28 33 34 34 31 29 26 22 21 23 24 25 25 22 24
42 41 43 43 44 44 43 44 46 44 43 38 39 37 34 29 26 24 27 26 23 24 28 28 32 39 37 35 32 24 24 28 28 33 35 34 34 30 28 23 22 23 24 27 27 20 23
43 42 42 43 44 44 44 46 45 44 43 39 39 41 36 30 27 26 28 28 25 25 29 31 36 35 36 35 31 28 26 29 28 32 33 33 32 30 29 28 26 28 27 26 21 23 25
43 41 42 43 44 43 45 45 44 44 43 39 40 42 38 34 31 30 32 32 28 27 30 29 31 35 35 32 30 31 30 30 28 31 33 31 31 30 31 29 25 30 26 23 26 33 29
44 43 43 43 43 42 43 45 44 43 43 38 38 42 41 36 37 42 43 40 31 30 30 35 27 32 35 31 32 31 34 33 29 26 31 29 32 30 30 28 37 30 28 29 32 30 32

GFSGBSN_sfc_30mbdewp_069.txt.gz
Dewpoint
44 44 47 50 51 48 47 47 48 48 49 48 49 50 50 51 53 54 54 56 57 56 56 55 55 54 46 31 26 41 52 56 43 37 31 22 20 17 18 18 20 19 24 26 28 30 30
44 44 45 45 47 50 49 48 47 46 47 47 47 49 50 50 52 53 53 54 56 56 56 55 55 53 40 29 24 27 36 44 37 34 27 21 22 24 24 22 21 29 29 28 30 29 31
43 42 43 44 46 46 48 50 48 47 46 47 47 47 49 50 50 52 53 53 55 56 56 55 54 49 39 33 27 28 34 34 32 28 24 25 27 26 26 23 24 26 25 33 36 28 28
44 44 43 44 45 45 46 49 49 48 47 46 46 47 47 49 49 51 52 53 55 56 56 53 53 45 38 30 29 27 29 35 34 30 28 29 30 29 26 25 23 21 22 18 35 32 29
48 46 45 45 45 44 45 46 48 50 48 47 45 46 47 46 49 51 51 53 55 56 54 52 49 44 32 33 29 26 23 29 33 32 33 32 31 27 26 21 18 18 14 21 23 25 25
44 45 47 47 46 46 45 45 45 49 49 47 46 44 46 47 48 51 51 52 52 53 51 48 44 38 35 24 25 24 22 25 28 31 32 31 27 26 25 21 16 15 16 15 16 25 25
42 42 43 45 47 47 45 45 45 47 49 49 46 45 45 47 47 51 51 46 42 45 44 30 29 25 24 24 33 28 22 24 28 29 27 26 24 23 21 21 19 17 16 17 19 22 22
42 42 42 43 43 46 45 45 45 45 46 48 48 46 45 46 48 51 51 41 38 44 34 32 34 32 33 33 30 26 29 25 25 26 26 25 24 24 23 18 18 18 18 19 21 21 22
44 44 42 43 43 43 45 46 46 46 45 46 48 47 45 47 48 49 46 41 45 46 38 25 23 26 26 29 30 25 26 24 23 23 22 22 23 23 24 22 22 22 21 22 20 22 21
43 43 44 43 43 44 45 47 46 46 45 45 48 47 46 46 45 40 42 44 46 48 31 14 30 29 25 25 25 26 26 22 21 21 21 21 22 24 23 22 23 20 22 22 22 21 25
43 43 44 44 45 45 45 46 47 46 46 45 47 47 46 45 44 44 44 48 49 47 0 14 24 30 26 24 8 19 25 20 19 20 20 18 19 24 22 22 22 21 25 23 23 23 21
43 43 44 45 45 45 45 46 46 47 46 45 45 47 46 43 43 44 48 51 49 28 8 13 28 27 28 25 15 16 21 22 20 19 19 18 22 22 21 23 25 24 24 25 25 23 20
43 43 44 45 45 45 46 46 46 46 46 46 45 46 45 41 41 39 48 49 29 13 9 8 24 28 28 24 22 18 18 20 18 18 18 19 21 22 25 23 25 26 24 22 20 19 18
44 44 44 45 45 45 46 46 46 46 47 46 46 46 42 39 42 45 46 41 16 10 11 22 24 29 26 22 19 20 18 19 20 18 18 16 15 20 24 23 24 23 23 22 18 18 17
45 45 45 45 45 46 46 46 46 46 47 46 45 41 38 41 42 46 41 31 15 10 10 9 22 28 27 23 18 18 18 17 18 19 15 15 15 19 21 23 23 23 22 23 23 22 20
45 45 45 46 46 46 46 46 46 47 47 46 43 38 35 41 44 44 36 30 23 12 7 18 12 24 23 22 18 16 17 15 16 18 18 18 15 17 20 24 23 25 27 22 21 17 18
45 45 45 45 46 46 46 46 47 47 46 46 42 37 34 41 44 40 29 29 28 18 15 18 21 15 23 25 19 20 18 16 16 18 19 18 18 18 23 23 20 22 24 23 21 21 19
45 45 45 45 45 46 46 46 46 47 46 45 40 32 37 44 34 34 30 29 28 24 20 22 29 26 20 25 23 20 24 16 19 18 19 20 19 17 21 21 20 22 22 23 20 18 21
44 45 45 45 45 45 46 46 46 47 46 43 36 35 38 41 28 31 29 27 26 24 21 24 26 27 29 32 25 21 20 22 22 19 20 21 18 18 17 20 24 22 23 23 23 22 20
44 44 45 45 46 46 46 46 46 46 47 43 36 30 37 40 30 27 24 23 22 25 26 21 26 26 27 30 32 26 23 23 27 23 23 25 18 19 17 17 20 20 18 21 22 24 22
44 45 45 46 46 46 46 46 46 47 47 43 36 30 33 29 32 28 24 20 20 19 24 27 25 27 26 26 27 30 27 27 29 26 27 23 19 18 17 17 15 15 17 17 19 20 19
45 46 46 45 47 47 46 45 46 47 47 41 33 28 29 27 32 29 26 22 17 17 17 21 25 24 26 24 27 28 31 27 23 26 26 25 22 21 16 17 16 14 13 15 14 13 14
43 43 43 44 44 45 46 46 45 46 47 39 38 31 29 29 29 28 27 24 18 16 17 19 20 22 24 26 34 34 33 31 30 31 27 25 26 20 19 18 18 18 17 16 16 17 17
43 43 43 44 44 44 45 46 46 47 46 40 38 31 30 26 29 26 25 24 20 17 16 18 22 21 23 34 34 35 34 33 29 29 31 27 26 25 25 27 21 22 22 20 18 18 19
42 41 42 43 44 44 44 45 47 47 47 41 37 34 30 29 25 26 24 23 23 18 18 17 22 27 28 33 30 27 29 31 31 28 28 31 30 27 26 25 21 19 23 23 20 18 19
44 43 42 42 43 43 44 44 44 46 47 42 38 37 33 30 26 25 24 23 21 19 18 20 22 28 33 29 29 20 25 27 30 28 32 31 34 31 29 24 22 21 22 26 22 20 22
43 43 43 43 42 43 44 44 44 44 46 43 40 39 35 28 26 24 23 25 23 21 19 20 26 36 33 32 30 23 20 23 25 34 32 33 34 34 30 27 23 21 23 27 23 24 22
43 42 43 43 43 42 43 44 44 43 45 43 41 40 36 30 28 28 28 25 26 24 21 23 29 34 33 31 28 24 25 27 20 25 33 32 31 34 33 30 27 29 28 24 28 28 29
42 42 42 43 42 43 43 44 44 43 45 43 40 40 39 34 30 38 30 38 30 26 24 26 31 30 30 28 27 25 30 31 25 21 25 33 33 32 30 30 32 31 28 30 31 33 31

GFSGBSN_sfc_30mbdewp_072.txt.gz
Dewpoint
45 45 45 46 47 48 51 50 49 47 46 47 46 47 49 49 49 50 52 53 53 54 56 57 56 56 50 37 32 43 46 48 41 30 29 28 21 18 15 17 17 17 18 22 20 22 23
43 43 44 44 45 45 47 49 51 49 47 46 46 45 46 49 50 50 50 52 53 53 55 56 56 54 48 38 33 27 33 45 37 34 31 27 20 18 21 21 20 19 26 24 31 33 31
45 44 45 45 45 44 45 47 48 49 50 48 46 45 45 46 48 49 49 52 52 53 55 56 56 52 46 38 36 30 29 32 37 33 29 23 21 24 24 24 24 22 20 25 36 31 28
46 48 46 46 46 46 46 46 47 47 49 50 47 45 45 45 46 48 49 51 51 52 55 56 55 50 38 34 33 31 30 28 32 30 26 25 25 26 26 26 23 22 19 19 31 34 33
44 44 46 48 47 47 47 46 46 45 47 49 49 47 44 44 46 48 48 50 51 52 54 55 50 47 35 30 33 30 25 24 32 31 28 28 30 28 26 24 21 18 17 18 26 33 30
43 43 44 45 46 48 48 47 47 47 46 48 49 48 46 44 44 47 48 49 49 52 52 51 46 36 34 21 24 27 25 21 28 30 28 29 28 25 24 23 19 20 18 21 17 24 26
42 43 43 43 44 45 45 48 47 47 47 48 48 49 47 46 44 47 47 45 38 48 48 38 32 30 21 27 24 25 22 20 24 27 27 27 25 21 22 23 23 19 17 15 24 24 22
42 42 42 42 43 43 43 44 47 47 47 46 47 47 48 46 46 48 46 43 32 42 36 32 36 35 32 31 30 27 23 18 22 23 26 25 23 22 23 23 18 16 17 15 20 23 20
43 43 42 42 42 42 43 43 45 47 47 47 46 48 47 47 46 44 41 41 41 42 37 26 23 21 22 26 29 27 23 18 19 22 23 24 23 25 23 23 19 19 19 19 22 22 24
43 43 43 42 42 43 44 44 45 46 47 47 46 47 47 46 42 41 37 40 41 46 34 12 15 21 20 21 20 28 28 23 19 19 21 22 23 23 23 22 21 20 21 22 20 20 19
43 43 43 44 44 45 45 45 45 46 47 47 46 47 47 46 40 41 45 47 49 46 8 3 12 27 23 19 16 19 27 24 21 18 20 20 20 20 23 21 22 21 22 24 23 21 21
42 43 43 44 44 44 45 46 46 46 46 47 47 46 46 43 42 40 43 45 50 32 8 9 25 25 23 20 18 15 20 25 22 18 20 19 20 19 19 23 22 22 22 23 23 23 21
42 43 43 43 44 44 45 46 46 46 47 47 47 46 45 38 37 40 48 43 31 20 9 3 19 25 23 22 20 19 16 21 21 16 18 18 18 18 21 20 21 23 23 21 23 21 21
43 43 43 44 44 45 45 45 46 46 47 47 47 47 43 38 39 40 44 38 24 12 15 14 10 24 23 24 23 20 17 15 22 17 17 16 15 17 21 22 21 22 23 24 27 22 22
42 43 44 44 45 45 45 45 46 46 47 47 47 46 42 40 40 42 40 29 24 16 9 12 17 20 25 24 22 22 19 17 20 19 17 17 15 17 21 22 22 23 21 23 25 28 25
43 43 44 45 45 45 45 46 46 46 47 47 45 43 42 41 42 41 35 27 25 25 17 15 10 19 23 25 21 19 18 19 18 19 20 19 17 18 18 22 21 21 24 21 22 21 20
43 44 44 45 45 46 46 46 46 46 47 46 43 37 41 42 42 38 29 27 26 23 26 19 10 13 11 20 23 18 18 21 21 20 20 20 20 18 17 18 18 19 20 26 23 21 20
43 44 44 44 45 45 46 46 46 47 47 46 41 32 40 41 34 34 30 29 27 20 21 24 24 21 15 15 26 20 20 19 23 21 19 20 19 19 17 19 20 21 21 24 23 20 24
43 43 44 44 44 45 46 46 46 46 46 44 36 36 40 39 28 29 30 28 26 24 19 20 21 23 24 27 20 24 22 25 27 25 19 21 20 19 18 19 22 20 20 22 23 24 22
43 43 44 44 45 45 46 46 46 46 46 45 36 30 37 39 32 28 27 26 25 26 22 21 23 23 32 25 29 28 24 24 25 27 30 29 21 20 20 21 23 20 18 20 23 24 25
43 43 44 45 45 45 46 46 46 46 47 45 35 32 33 30 32 29 27 23 22 22 22 23 21 23 27 33 22 25 29 26 24 27 27 28 25 22 19 19 19 19 20 20 19 20 22
44 44 44 44 44 45 46 46 46 46 46 42 32 31 30 27 30 32 30 27 22 20 18 19 21 22 26 33 34 29 24 28 28 29 28 26 26 22 22 19 19 17 19 19 18 17 17
44 44 44 45 46 46 46 46 46 46 46 41 39 34 31 29 31 30 29 27 24 21 18 17 18 21 26 35 38 43 37 34 32 31 33 28 26 23 22 22 18 17 18 16 14 16 16
44 44 44 44 44 43 45 46 47 46 46 43 39 35 32 30 27 31 27 27 24 22 20 17 18 17 26 34 43 42 40 35 33 31 31 31 29 26 26 24 20 21 22 19 18 18 19
42 42 42 43 43 43 44 45 46 47 46 44 41 35 32 31 27 25 28 25 26 25 22 19 18 19 20 26 33 33 34 32 31 31 31 31 32 29 25 25 23 21 22 21 20 21 22
43 43 43 42 43 43 43 43 44 45 47 45 42 39 35 30 28 25 26 26 25 24 25 23 22 22 25 30 31 30 28 29 26 25 30 30 31 32 29 25 23 26 24 25 25 21 23
44 43 44 43 43 43 43 44 44 44 45 45 42 41 36 31 29 27 28 27 26 25 24 24 23 25 33 29 32 31 29 20 24 28 29 30 32 31 31 29 26 26 25 26 22 24 26
43 43 44 44 44 43 42 43 44 44 44 46 42 43 38 35 30 30 31 32 29 27 24 23 22 25 32 28 29 30 26 23 19 30 33 33 30 31 31 28 25 28 27 23 27 31 30
43 43 43 43 43 44 42 43 44 44 43 45 40 43 41 37 36 39 36 35 36 32 26 26 23 29 34 30 30 29 26 27 23 21 33 28 37 31 31 31 35 35 30 34 34 33 35

GFSGBSN_sfc_30mbdewp_075.txt.gz
Dewpoint
44 44 45 45 45 46 47 48 49 51 50 48 47 46 45 46 48 50 50 50 50 52 53 54 56 57 52 45 40 42 48 47 39 28 27 27 27 27 19 18 17 21 21 21 29 29 29
46 46 46 45 45 45 45 46 48 49 50 50 49 47 45 45 46 48 49 50 49 51 52 53 55 56 51 40 40 37 42 46 36 34 30 29 29 27 20 22 23 20 22 23 30 28 30
46 48 48 47 47 46 45 46 46 48 48 49 50 49 46 45 45 46 48 49 49 49 51 53 55 54 49 42 38 36 35 35 42 38 34 32 32 26 22 24 26 25 23 24 28 30 30
45 45 45 47 49 48 48 47 47 46 46 48 49 48 48 46 44 44 47 48 49 49 50 52 55 53 43 41 41 43 38 36 31 37 35 33 30 25 26 27 26 24 22 20 20 30 30
45 45 45 45 47 47 49 48 48 47 47 47 48 48 49 48 46 44 45 48 48 48 50 52 52 50 41 39 36 35 34 30 29 28 32 29 26 28 28 26 25 24 21 19 19 29 30
44 43 43 44 45 46 47 47 49 48 48 48 48 49 48 49 47 46 46 47 46 48 50 52 51 42 41 29 29 30 33 29 25 30 31 29 27 27 26 25 21 22 22 21 20 29 33
43 42 43 43 43 43 44 44 46 47 48 48 48 48 48 48 48 47 47 43 40 46 47 45 42 35 27 32 33 25 29 25 22 23 28 29 25 25 25 25 24 24 23 18 18 24 25
43 42 42 42 42 42 43 43 45 45 46 48 48 47 48 47 48 47 45 40 41 42 39 42 45 43 38 39 34 30 26 22 20 18 27 28 25 27 27 24 23 23 16 17 17 27 25
43 42 42 42 42 42 42 42 44 45 45 47 48 47 47 48 47 45 40 40 41 40 39 36 36 30 30 30 33 30 29 24 19 18 22 26 27 27 26 23 22 20 18 18 20 21 24
42 43 42 42 42 42 42 42 44 45 45 46 48 47 46 47 44 41 41 46 45 47 37 27 24 26 25 19 24 28 29 25 18 17 21 23 27 26 25 24 23 20 22 22 24 21 19
42 42 43 42 42 44 44 44 45 45 46 46 47 48 47 46 44 40 40 42 43 47 -6 6 12 23 20 19 19 21 26 27 18 17 20 20 23 25 24 24 24 21 24 24 24 24 22
42 42 42 42 43 44 44 44 45 46 46 46 47 48 47 44 44 43 43 45 46 34 17 13 23 24 21 19 18 19 21 25 27 20 20 20 22 22 23 23 24 23 22 22 24 23 21
41 42 42 43 43 43 44 44 45 46 47 47 47 48 47 43 37 41 45 44 31 27 9 0 20 24 24 19 18 18 19 20 23 21 20 21 20 21 21 20 22 22 22 21 23 21 21
41 42 42 43 43 43 44 45 45 45 46 47 47 47 46 44 42 39 43 37 25 17 19 17 16 20 23 23 20 19 17 18 24 23 20 19 17 20 20 19 21 21 22 23 22 24 27
41 41 42 42 42 43 44 45 45 46 46 47 47 45 44 44 43 40 38 27 23 22 18 15 14 11 21 23 23 21 20 19 20 24 19 17 17 19 19 21 22 24 22 26 29 29 28
42 42 42 42 43 44 44 45 45 46 46 46 44 42 41 44 44 39 34 24 25 25 20 19 18 20 15 23 24 24 23 23 21 21 24 21 19 20 19 21 22 22 26 22 23 24 24
41 42 42 42 43 44 45 45 46 46 46 47 43 37 40 44 43 36 27 26 27 27 23 21 17 19 23 24 26 27 22 23 22 19 23 21 21 20 22 19 20 22 20 21 26 26 20
41 41 42 42 43 44 45 45 46 46 47 46 41 31 43 43 34 32 26 26 27 27 25 23 22 21 24 25 24 28 29 24 23 24 19 21 24 21 21 23 22 22 21 22 25 25 24
40 41 41 42 43 44 45 45 46 47 47 43 35 35 42 41 28 29 28 27 28 28 27 24 22 21 23 21 25 34 32 31 27 24 24 26 25 25 22 22 21 20 22 22 23 26 23
41 41 42 43 43 44 44 45 46 47 47 44 34 29 37 39 35 30 29 27 28 29 28 27 24 23 23 23 29 34 35 35 30 27 29 28 30 27 22 21 23 19 20 22 22 22 22
42 42 43 43 44 44 45 45 46 47 47 44 35 31 34 30 32 33 29 27 26 27 27 26 24 25 23 21 29 31 37 38 35 29 29 27 28 27 25 22 23 22 22 22 20 21 24
42 42 42 43 43 44 44 44 45 46 47 42 32 33 34 29 31 33 31 31 27 27 24 23 24 23 23 21 28 30 34 39 38 30 26 27 24 25 24 25 20 20 22 22 21 21 21
42 43 43 43 44 44 44 45 45 46 46 40 39 37 33 31 31 30 29 28 29 28 26 24 24 23 21 23 33 38 42 42 41 38 30 26 26 24 22 25 23 21 20 21 21 22 21
44 44 44 44 44 45 45 45 45 45 46 42 40 37 31 30 28 31 29 29 28 28 28 25 23 21 22 22 41 40 39 41 40 37 36 31 31 31 26 25 19 23 23 22 20 21 20
42 42 43 43 43 44 44 45 45 46 46 44 42 37 34 28 32 28 31 29 30 29 28 27 26 24 22 25 28 33 34 35 34 37 35 33 33 30 24 24 25 25 23 22 20 20 21
42 42 42 42 42 42 43 44 44 46 46 45 43 41 35 30 28 30 29 30 28 27 27 28 28 28 25 21 23 23 24 32 30 32 33 32 34 31 31 26 22 26 28 26 25 20 25
42 43 43 43 43 43 42 43 43 44 45 45 43 44 37 32 30 29 27 27 29 28 27 27 28 27 27 24 20 24 24 31 28 28 28 30 32 31 30 31 31 30 26 28 22 22 24
43 44 44 44 44 43 43 43 43 43 44 45 43 45 40 36 35 31 31 30 30 30 27 28 27 27 26 22 24 27 27 27 26 27 29 29 28 29 31 30 30 32 28 25 28 30 28
44 43 44 44 44 44 44 44 43 43 43 44 41 45 43 39 37 39 38 33 35 34 33 30 26 25 29 28 30 30 28 28 24 21 32 28 33 31 32 31 36 38 31 35 34 34 35

GFSGBSN_sfc_30mbdewp_081.txt.gz
Dewpoint
50 49 48 47 47 46 46 46 46 47 48 49 49 49 48 47 49 50 49 48 47 47 47 48 49 50 51 43 34 40 48 45 41 28 20 20 23 26 24 24 22 19 20 23 25 25 28
47 47 47 48 49 49 48 47 47 48 48 48 48 49 50 48 48 50 50 49 48 48 47 47 48 50 47 26 33 38 40 47 36 28 26 25 21 26 25 26 23 24 25 25 24 24 28
45 46 46 46 46 47 47 48 49 49 49 49 49 49 48 48 49 49 49 49 48 48 48 47 47 48 45 31 38 40 40 34 40 35 29 29 28 25 29 26 27 26 23 23 22 23 26
44 45 46 46 46 47 47 48 47 47 48 49 49 49 49 49 49 49 48 47 47 48 48 47 48 48 38 43 44 44 43 39 39 36 34 35 32 29 29 29 27 24 24 19 20 24 26
44 44 45 45 44 45 46 46 47 46 46 47 49 49 48 48 48 48 47 47 46 46 47 48 49 46 32 43 39 40 42 34 29 35 36 37 34 32 31 27 25 25 18 20 21 25 25
45 45 44 44 45 45 45 45 45 45 46 47 47 48 49 48 48 48 47 45 45 48 48 49 49 40 37 23 31 34 39 35 28 30 30 29 30 28 27 25 19 20 21 23 23 24 28
44 45 44 44 45 44 43 43 44 45 45 46 46 47 48 49 48 47 45 40 39 38 42 41 41 40 38 38 42 36 36 32 28 27 25 28 26 25 26 26 25 24 24 23 23 24 24
40 42 44 43 44 43 43 43 43 44 45 45 46 47 47 48 48 46 43 38 39 40 37 41 41 40 41 42 38 34 37 29 27 24 26 26 26 28 26 26 25 25 24 22 24 24 24
44 43 43 43 44 44 41 43 44 43 44 45 46 46 46 46 48 41 41 40 40 41 39 36 38 36 35 35 34 34 36 28 24 24 23 22 26 27 26 25 25 25 24 23 23 24 24
42 45 43 43 43 42 42 42 43 42 43 44 45 46 46 47 36 41 36 40 39 42 32 25 32 30 32 33 34 35 33 27 24 21 21 21 23 27 26 24 26 23 26 26 24 23 21
42 43 43 42 42 42 43 43 42 42 43 44 45 47 47 47 43 37 35 40 40 45 -18 3 21 31 31 22 13 24 30 27 23 20 20 18 20 21 24 27 27 25 27 26 25 24 23
40 41 42 43 43 43 42 41 41 42 42 44 45 47 46 44 44 43 42 40 45 29 0 5 21 25 25 23 19 24 27 26 24 22 20 18 24 23 22 24 28 28 26 25 27 24 19
40 41 42 43 41 40 40 41 42 43 43 44 45 47 46 44 38 42 42 40 31 20 20 13 19 17 15 18 19 17 23 21 21 17 21 19 18 20 24 23 26 26 24 21 19 19 18
40 40 40 40 40 41 41 41 42 43 44 45 46 46 45 45 44 43 39 34 23 23 23 23 19 16 10 25 27 28 19 20 21 24 21 19 16 18 19 20 20 23 24 21 17 18 18
39 39 39 40 40 41 40 41 43 43 44 44 45 44 43 43 45 43 35 22 13 22 21 21 17 16 19 20 25 27 29 24 17 19 21 20 18 21 18 20 21 20 21 23 21 30 27
37 38 39 40 40 40 41 41 42 43 43 44 42 39 37 43 44 40 30 16 19 23 23 21 17 18 17 16 18 26 28 30 27 33 22 24 20 22 21 20 21 21 26 22 27 19 21
37 38 38 39 40 40 40 41 41 42 43 45 41 36 37 44 43 36 24 21 22 20 22 22 20 16 17 14 14 23 27 27 34 33 38 28 22 22 21 19 18 21 22 24 24 25 19
39 39 40 40 41 40 40 40 41 42 43 43 38 30 40 43 32 31 26 24 23 22 26 23 24 22 22 21 18 19 23 23 34 37 32 36 27 20 20 23 22 19 20 24 21 23 26
39 39 39 40 40 41 40 41 41 42 43 40 35 35 42 40 25 27 29 26 24 22 23 25 26 25 23 20 20 21 22 31 36 36 36 38 32 22 20 22 22 22 23 23 26 26 24
39 39 40 40 40 40 40 40 41 42 43 41 33 29 36 38 34 26 26 28 29 27 24 25 26 26 26 24 25 24 26 30 34 36 41 40 37 33 22 19 19 20 22 24 24 21 22
39 40 40 40 40 41 41 41 41 42 43 41 34 30 34 28 31 31 27 26 29 28 26 27 25 24 23 21 22 22 22 24 32 39 36 39 33 32 29 23 24 26 26 26 25 24 20
39 40 40 40 41 41 42 42 42 43 43 40 32 31 36 31 30 32 29 27 24 27 25 26 26 27 27 24 24 18 20 19 26 37 34 37 32 33 28 24 22 22 29 29 28 28 23
40 41 42 42 42 42 42 43 43 43 43 39 39 37 34 30 29 30 29 27 27 26 27 27 26 26 25 26 28 28 26 26 31 33 34 32 32 32 26 29 29 27 27 27 26 29 27
41 41 42 42 42 42 43 43 43 44 44 41 40 37 33 27 28 28 28 30 27 29 27 27 28 27 27 29 29 29 29 28 28 35 36 31 31 32 28 27 24 29 31 30 28 28 29
42 43 44 44 43 43 43 43 44 44 45 42 41 37 33 27 31 28 28 28 31 30 28 30 31 30 32 30 28 25 27 30 31 35 36 36 33 31 29 25 26 28 31 30 29 28 29
41 41 42 42 43 43 43 45 44 44 44 43 41 42 35 32 29 31 28 29 27 29 29 30 30 30 30 28 28 25 20 22 22 31 35 37 35 32 31 28 23 26 28 30 29 28 28
41 41 41 42 42 42 42 43 43 45 44 43 41 43 39 33 33 32 29 30 29 28 28 29 30 30 31 29 27 25 24 24 19 21 30 32 33 30 30 29 30 31 35 35 30 29 30
41 41 41 41 42 42 42 42 43 43 45 44 41 44 40 35 36 33 32 31 32 30 27 28 29 29 30 26 25 26 22 22 22 25 26 26 27 28 31 29 27 36 36 29 34 32 31
41 41 41 41 42 42 42 43 43 43 43 45 40 44 43 38 37 38 34 33 32 31 31 31 28 29 29 27 26 25 22 26 23 18 28 24 27 28 30 32 36 37 36 40 39 37 37